This is the latest recevied weather packets stored in our database for station/object EA1ZE. If no packets are shown the sender has not sent any weather packets the latest 10 day(s).
| Time | Temp. | Humidity | Pressure | Rain* | Wind** | Luminosity | Snow |
|---|---|---|---|---|---|---|---|
| 1787952619 | 18.33° C | 64% | 1020.8 hPa | 0 mm | - | - | - |
| 1787951724 | 18.33° C | 64% | 1020.9 hPa | 0 mm | - | - | - |
| 1787950817 | 18.89° C | 64% | 1020.8 hPa | 0 mm | - | - | - |
| 1787949918 | 18.89° C | 63% | 1020.8 hPa | 0 mm | - | - | - |
| 1787949017 | 18.89° C | 63% | 1020.8 hPa | 0 mm | - | - | - |
| 1787948118 | 19.44° C | 63% | 1020.7 hPa | 0 mm | - | - | - |
| 1787947218 | 19.44° C | 62% | 1020.6 hPa | 0 mm | - | - | - |
| 1787946314 | 20° C | 61% | 1020.5 hPa | 0 mm | - | - | - |
| 1787945414 | 20.56° C | 60% | 1020.2 hPa | 0 mm | - | - | - |
| 1787944514 | 21.11° C | 58% | 1020 hPa | 0 mm | - | - | - |
| 1787943619 | 21.67° C | 56% | 1019.8 hPa | 0 mm | - | - | - |
| 1787942713 | 21.67° C | 54% | 1019.7 hPa | 0 mm | - | - | - |
| 1787941824 | 22.22° C | 53% | 1019.7 hPa | 0 mm | - | - | - |
| 1787940917 | 22.22° C | 52% | 1019.6 hPa | 0 mm | - | - | - |
| 1787940013 | 22.22° C | 51% | 1019.8 hPa | 0 mm | - | - | - |
| 1787939113 | 22.78° C | 51% | 1019.9 hPa | 0 mm | - | - | - |
| 1787938213 | 23.33° C | 49% | 1019.9 hPa | 0 mm | - | - | - |
| 1787937318 | 23.33° C | 49% | 1019.9 hPa | 0 mm | - | - | - |
| 1787936426 | 23.89° C | 48% | 1019.9 hPa | 0 mm | - | - | - |
| 1787935506 | 23.33° C | 50% | 1019.8 hPa | 0 mm | - | - | - |
| 1787934606 | 22.78° C | 51% | 1019.9 hPa | 0 mm | - | - | - |
| 1787933704 | 23.33° C | 50% | 1020 hPa | 0 mm | - | - | - |
| 1787932802 | 22.78° C | 52% | 1020.1 hPa | 0 mm | - | - | - |
| 1787931963 | 22.22° C | 53% | 1020.1 hPa | 0 mm | - | - | - |
| 1787931058 | 21.67° C | 54% | 1020.1 hPa | 0 mm | - | - | - |
* Rain latest hour (hover to see other rain measurements)
** Current wind speed in m/s (hover to see current wind gust speed)